[[{"header":{"parameterUnit":"m.s-1","parameterCategory":1,"la1":30.2991,"la2":30.254,"lo1":-89.0895,"lo2":-89.0444,"dy":0.0017,"dx":0.0017,"nx":28,"ny":28,"refTime":"2025-03-11T09:00:00:Z","depth":0,"parameterNumber":2,"parameterNumberName":"U-component_of_WINDS"},"data":[0,0,0,0,0,0,0,0,0,0,0,0,0,0,0,0,0,0,0,0,0,0,0,0,0,0,0,0,0,0,0,0,0,0,0,0,0,0,0,0,0,0,0,0,0,0,0,0,0,0,0,0,0,0,0,0,0,0,4.766,4.7661,0,4.7762,4.7764,4.7765,4.7669,4.7665,4.7662,4.7658,4.7764,4.777,4.7776,0,0,0,0,0,0,0,0,0,0,0,0,0,4.7382,4.7387,4.766,4.7661,4.7663,4.7762,4.7764,4.7765,4.767,4.7665,4.7661,4.7656,4.7762,4.7769,4.7777,0,0,0,0,0,0,0,0,0,0,0,0,0,4.7495,4.7389,4.766,4.7627,4.7625,4.7762,4.7764,4.7765,4.7671,4.7665,4.7659,4.7654,4.7759,4.7769,4.7778,4.7953,0,0,4.7807,4.7812,0,0,0,0,0,0,0,0,4.7489,4.7506,4.7631,4.763,4.7628,4.7697,4.7704,4.7828,4.7672,4.7654,4.7658,4.7651,4.7746,4.7757,4.7789,4.7957,4.7962,4.7808,4.7814,4.7818,4.7821,0,0,0,0,0,0,0,4.7481,4.7501,4.77,4.7633,4.7631,4.7607,4.7617,4.7727,4.7731,4.7655,4.7648,4.7661,4.7744,4.778,4.779,4.7964,4.7808,4.7816,4.7822,4.7826,4.8277,4.8283,0,0,0,0,0,0,4.7477,4.7495,4.7697,4.7703,4.7543,4.7617,4.7628,4.7681,4.773,4.7731,4.7666,4.7657,4.7766,4.7779,4.7794,4.7998,4.7818,4.7827,4.7833,4.8271,4.8279,4.8286,0,0,0,0,0,0,4.7471,4.7496,4.7693,4.7597,4.7621,4.7628,4.7688,4.7686,4.772,4.7738,4.7738,4.7701,4.7762,4.778,4.7913,4.8001,4.7831,4.784,4.8264,4.8274,4.8282,4.8411,0,0,0,0,0,0,4.7464,4.7494,4.7561,4.76,4.7626,4.7811,4.7693,4.7692,4.7737,4.7726,4.7771,4.7773,4.7759,4.7899,4.7922,4.8011,4.7848,4.8256,4.8268,4.8279,4.8399,4.8424,4.8445,0,0,0,0,0,4.7454,4.7594,4.7565,4.759,4.771,4.7816,4.7832,4.7812,4.7745,4.7811,4.7822,4.7772,4.7988,4.7914,4.7939,4.8032,4.825,4.8265,4.8278,4.8389,4.8419,4.8444,0,0,0,0,0,0,4.7566,4.7599,4.7566,4.7723,4.7768,4.78,4.7883,4.7845,4.791,4.7896,4.7869,4.788,4.802,4.8039,4.7956,4.8202,4.8108,4.8128,4.8183,4.8212,4.8235,4.8226,4.7856,0,0,0,0,0,4.7609,4.7693,4.7717,4.7853,4.7877,4.7877,4.7923,4.7903,4.7948,4.7967,4.7988,4.8034,4.8111,4.8163,4.8236,4.8402,4.8409,4.8478,4.8501,4.852,4.8537,4.8623,4.8653,4.8332,4.8332,4.8331,0,0,4.7699,4.7727,4.7782,4.7876,4.7908,4.7995,4.7893,4.799,4.8054,4.7982,4.8107,4.8125,4.8174,4.8323,4.839,4.8344,4.8627,4.8538,4.8553,4.8559,4.864,4.8671,4.8698,4.8341,4.8339,4.8338,0,0,4.7906,4.7937,4.8052,4.8086,4.8135,4.8134,4.8162,4.82,4.8208,4.8334,4.8281,4.8357,4.8492,4.8528,4.8565,4.8784,4.8739,4.8809,4.8928,4.9012,4.9037,4.906,4.9135,4.9163,4.8826,4.8826,4.8827,0,4.8011,4.8139,4.8116,4.8216,4.8258,4.8196,4.8312,4.8346,4.8418,4.8448,4.8395,4.8562,4.8591,4.8747,4.88,4.8833,4.8862,4.8802,4.9036,4.9058,4.9078,4.915,4.9179,4.8834,4.8833,4.8833,4.8832,0,4.8265,4.8355,4.8442,4.8511,4.8563,4.8671,4.8663,4.8719,4.8695,4.8699,4.8827,4.886,4.8936,4.8973,4.8951,4.9125,4.9094,4.904,4.8944,4.9117,4.9184,4.9211,4.8846,4.8843,4.884,4.8838,0,0,4.8544,4.8598,4.863,4.8659,4.8709,4.8778,4.8883,4.8957,4.9005,4.9056,4.9141,4.9257,4.9206,4.9247,4.9229,4.9304,4.9472,4.9239,4.924,4.9279,4.9661,4.97,4.9732,4.9443,4.9448,4.9452,4.9656,0,4.875,4.893,4.8912,4.9083,4.9165,4.9107,4.9197,4.9238,4.9244,4.9314,4.9322,4.9402,4.9331,4.9355,4.9426,4.9436,4.9548,4.9422,4.952,4.9524,4.9507,4.9768,4.9809,5.0,4.9682,4.9687,4.969,0,4.9014,4.9074,4.9253,4.9288,4.9322,4.9403,4.9469,4.9537,4.9581,4.958,4.9626,4.9595,4.9698,4.9603,4.9744,4.9659,4.9698,4.971,4.9717,4.9723,4.9616,4.9778,5.0061,5.0088,4.9732,4.9728,4.9725,0,4.9196,4.9321,4.9444,4.9471,4.9517,4.9575,4.9596,4.9634,4.968,4.9738,4.9766,4.9836,4.9874,4.9928,4.9916,4.9848,5.0059,4.9964,5.006,5.006,5.0105,5.0102,5.0395,5.0136,5.0135,5.0135,5.0134,0,4.9426,4.9538,4.9526,4.9601,4.9723,4.9701,4.9823,4.9837,4.9871,4.9947,4.9903,4.9975,4.9956,5.0028,5.0019,5.0135,5.0154,5.0155,5.0151,5.0157,5.0157,5.0181,5.0166,5.0142,5.0141,5.0139,5.0138,0,4.9649,4.9646,4.9775,4.9807,4.9818,4.9906,4.9933,5.0003,5.0006,5.0103,5.0125,5.0129,5.0211,5.0205,5.0297,5.0291,5.0434,5.0416,5.0419,5.0414,5.0509,5.0499,5.0826,5.0867,5.0584,5.0587,5.0589,0,4.9795,4.9879,4.9919,4.9967,4.9992,5.007,5.0115,5.0097,5.0146,5.0201,5.0264,5.0342,5.0402,5.0536,5.0547,5.0617,5.0598,5.0708,5.0608,5.0611,5.0596,5.059,5.0596,5.0726,5.073,5.0732,5.0734,0,5.0052,5.0046,5.0114,5.0181,5.0236,5.0288,5.0335,5.0377,5.0363,5.042,5.0503,5.055,5.0643,5.072,5.0786,5.0807,5.0768,5.0766,5.0791,5.0797,5.0794,5.0794,5.0469,5.0758,5.0755,5.0754,5.0752,5.0752,5.0239,5.0309,5.0348,5.0424,5.0458,5.0503,5.0569,5.058,5.0649,5.0723,5.0708,5.08,5.084,5.0925,5.0953,5.1024,5.0984,5.1022,5.1031,5.104,5.1049,5.0785,5.1037,5.1036,5.1035,5.1035,5.1034,0,5.0491,5.0513,5.0584,5.065,5.071,5.0668,5.0718,5.077,5.0852,5.0892,5.0953,5.1046,5.112,5.1137,5.1208,5.1261,5.1245,5.128,5.1274,5.1279,5.1082,5.1052,5.1292,5.1292,5.1292,5.1292,5.1292,5.1292,5.0629,5.0746,5.0744,5.0877,5.0898,5.0987,5.1019,5.1059,5.1091,5.1198,5.1259,5.1269,5.13,5.1372,5.1437,5.144,5.1467,5.1509,5.1505,5.132,5.1294,5.1269,5.124,5.1516,5.1516,5.1695,5.1697,5.1698]},{"header":{"parameterUnit":"m.s-1","parameterCategory":1,"la1":30.2991,"la2":30.254,"lo1":-89.0895,"lo2":-89.0444,"dy":0.0017,"dx":0.0017,"nx":28,"ny":28,"refTime":"2025-03-11T09:00:00:Z","depth":0,"parameterNumber":3,"parameterNumberName":"V-component_of_WINDS"},"data":[0,0,0,0,0,0,0,0,0,0,0,0,0,0,0,0,0,0,0,0,0,0,0,0,0,0,0,0,0,0,0,0,0,0,0,0,0,0,0,0,0,0,0,0,0,0,0,0,0,0,0,0,0,0,0,0,0,0,3.6837,3.6839,0,3.7009,3.7011,3.7013,3.7031,3.7029,3.7027,3.7026,3.7199,3.7205,3.7211,0,0,0,0,0,0,0,0,0,0,0,0,0,3.6519,3.6525,3.6837,3.6839,3.6841,3.7009,3.7012,3.7014,3.7031,3.7029,3.7027,3.7025,3.7197,3.7204,3.7212,0,0,0,0,0,0,0,0,0,0,0,0,0,3.6671,3.6527,3.6837,3.687,3.6875,3.7009,3.7012,3.7015,3.7032,3.7029,3.7026,3.7024,3.7195,3.7204,3.7213,3.7324,0,0,3.7242,3.7246,0,0,0,0,0,0,0,0,3.6662,3.6683,3.6863,3.6868,3.6874,3.6996,3.6963,3.7118,3.7032,3.6972,3.7026,3.7023,3.7134,3.7148,3.7186,3.7332,3.734,3.7243,3.7248,3.7252,3.7255,0,0,0,0,0,0,0,3.6652,3.6675,3.6905,3.6866,3.6872,3.6876,3.6894,3.6993,3.7065,3.6977,3.6979,3.6999,3.7136,3.7177,3.719,3.7342,3.7242,3.7251,3.7256,3.726,3.7586,3.7589,0,0,0,0,0,0,3.6636,3.6666,3.69,3.691,3.676,3.6883,3.6904,3.6959,3.7065,3.7078,3.7001,3.6999,3.7162,3.7179,3.7196,3.7332,3.7252,3.7261,3.7266,3.7583,3.7586,3.759,0,0,0,0,0,0,3.6629,3.6656,3.6893,3.6789,3.6819,3.6892,3.6954,3.6964,3.7005,3.7083,3.7095,3.703,3.7161,3.7183,3.7292,3.7338,3.7265,3.7274,3.7579,3.7584,3.7588,3.7605,0,0,0,0,0,0,3.6619,3.6654,3.6698,3.679,3.6825,3.6987,3.6957,3.697,3.7022,3.7021,3.7113,3.7126,3.716,3.7278,3.7301,3.735,3.7281,3.7575,3.7581,3.7587,3.76,3.7609,3.7617,0,0,0,0,0,3.6608,3.6695,3.67,3.6728,3.6882,3.699,3.701,3.7048,3.7025,3.7069,3.7119,3.7123,3.7329,3.7289,3.7315,3.7367,3.7573,3.758,3.7586,3.7597,3.7607,3.7617,0,0,0,0,0,0,3.6606,3.6708,3.6714,3.6834,3.6903,3.6992,3.7049,3.7059,3.7135,3.7131,3.7175,3.7196,3.7302,3.7346,3.7299,3.7479,3.7448,3.7461,3.7447,3.7458,3.7466,3.7453,3.7289,0,0,0,0,0,3.662,3.67,3.6784,3.6882,3.6916,3.6977,3.7025,3.7049,3.7122,3.7151,3.7209,3.7278,3.7359,3.7411,3.7489,3.7606,3.7626,3.7655,3.7663,3.767,3.768,3.7743,3.7757,3.7612,3.7612,3.7612,0,0,3.6648,3.6714,3.6762,3.6883,3.6939,3.702,3.7001,3.7088,3.7148,3.7164,3.7271,3.7315,3.7395,3.7508,3.7561,3.7548,3.7724,3.7678,3.7683,3.769,3.7752,3.7765,3.7777,3.7617,3.7616,3.7615,0,0,3.6742,3.6801,3.6888,3.6944,3.703,3.7069,3.709,3.7178,3.7208,3.7316,3.7329,3.74,3.7538,3.7594,3.7641,3.7754,3.7759,3.7778,3.7821,3.7882,3.7894,3.7904,3.7943,3.7957,3.7788,3.7788,3.7788,0,3.6767,3.6891,3.6931,3.7017,3.7069,3.7088,3.7175,3.7228,3.7334,3.7369,3.7353,3.7525,3.7581,3.7706,3.7734,3.7771,3.7795,3.7768,3.7889,3.79,3.791,3.7948,3.7962,3.7789,3.7789,3.7789,3.7789,0,3.6916,3.7001,3.7061,3.7164,3.7223,3.7309,3.7361,3.7415,3.7433,3.7474,3.7582,3.7649,3.774,3.7772,3.779,3.79,3.7889,3.788,3.785,3.7925,3.7961,3.7976,3.7792,3.7791,3.7791,3.779,0,0,3.7015,3.7137,3.7159,3.7205,3.73,3.7366,3.7452,3.7542,3.7587,3.7659,3.7732,3.7847,3.7839,3.7892,3.7917,3.7971,3.8054,3.7956,3.7958,3.7971,3.8177,3.8182,3.8199,3.8058,3.8061,3.8064,3.817,0,3.7118,3.7274,3.7312,3.7444,3.7522,3.754,3.7615,3.768,3.772,3.7791,3.7834,3.7915,3.7899,3.7931,3.7985,3.8033,3.8096,3.8026,3.8125,3.8128,3.8104,3.8218,3.8224,3.8321,3.8184,3.8187,3.8189,0,3.7261,3.7336,3.7477,3.756,3.7594,3.7661,3.7746,3.7814,3.7887,3.7912,3.797,3.799,3.8078,3.8043,3.8165,3.8116,3.8158,3.8187,3.8192,3.8203,3.8163,3.8231,3.8354,3.8368,3.8211,3.821,3.8208,0,3.7317,3.7454,3.7555,3.7594,3.7694,3.774,3.7784,3.7855,3.7906,3.798,3.8013,3.8095,3.814,3.8203,3.8243,3.8214,3.8361,3.8329,3.8382,3.8381,3.8413,3.841,3.8543,3.8441,3.844,3.844,3.844,0,3.7429,3.7514,3.7582,3.7644,3.7739,3.778,3.7873,3.7916,3.7979,3.8049,3.8069,3.8133,3.8182,3.8253,3.8285,3.838,3.84,3.8421,3.8429,3.842,3.8417,3.8448,3.8442,3.8444,3.8443,3.8442,3.8442,0,3.7508,3.7557,3.7669,3.7754,3.7777,3.7843,3.7915,3.7975,3.8015,3.8103,3.8126,3.8187,3.8272,3.8318,3.8423,3.8444,3.855,3.8554,3.8526,3.8529,3.8579,3.8573,3.8736,3.8759,3.8642,3.8643,3.8644,0,3.7576,3.7642,3.7734,3.7782,3.7827,3.7905,3.7957,3.8,3.8053,3.8141,3.819,3.8276,3.8347,3.848,3.8533,3.8613,3.8619,3.8671,3.8631,3.8619,3.8619,3.8614,3.862,3.8677,3.8678,3.8679,3.868,0,3.7691,3.7712,3.7787,3.7871,3.7933,3.8,3.8067,3.8105,3.8158,3.8217,3.8304,3.8359,3.8466,3.855,3.8634,3.8677,3.8687,3.8692,3.8708,3.8699,3.868,3.869,3.8544,3.8688,3.8687,3.8687,3.8686,3.8686,3.7767,3.7825,3.7899,3.7981,3.8036,3.8098,3.8158,3.8205,3.8278,3.837,3.839,3.8481,3.8551,3.8665,3.8711,3.8781,3.8771,3.8795,3.8801,3.8806,3.8807,3.8669,3.8797,3.8797,3.8796,3.8796,3.8796,0,3.7882,3.793,3.8005,3.8098,3.8162,3.8167,3.824,3.8294,3.8374,3.8439,3.8508,3.8607,3.8688,3.8747,3.8829,3.8874,3.8881,3.8894,3.8891,3.8901,3.8812,3.879,3.8888,3.8888,3.8888,3.8888,3.8888,3.8888,3.7949,3.8048,3.8077,3.8203,3.825,3.834,3.8381,3.8437,3.8489,3.8599,3.8667,3.8705,3.8767,3.8854,3.8928,3.8943,3.8972,3.8985,3.9,3.8917,3.8907,3.8898,3.8877,3.8991,3.8991,3.9083,3.9084,3.9084]}]]